Regional Weather Roundup
Issued by NWS

Home | Current Version | Previous Version | Graphics & Text | Print | Product List | Glossary On
Versions: 1 2 3 4 5 6 7 8 9 10 11 12 13 14 15 16 17 18 19 20 21 22 23 24 25 26 27 28 29 30 31 32 33 34 35 36 37 38 39 40 41 42 43 44 45 46 47 48 49 50
000
ASUS44 KMEG 290710
RWRTN
TENNESSEE HOURLY STATE WEATHER ROUNDUP
NATIONAL WEATHER SERVICE MEMPHIS TN
200 AM CDT WED MAR 29 2017

TNZ002-004-019-021-049-052-054-088>092-290800-
WEST TENNESSEE

CITY           SKY/WX    TMP DP  RH WIND       PRES   REMARKS
MEMPHIS INTL   CLEAR     63  54  72 E12       29.95F
NWS MEMPHIS      N/A     61 N/A N/A MISG        N/A
JACKSON        CLEAR     58  54  86 E6        30.00S
DYERSBURG      CLEAR     56  53  90 NE10      30.01F
SOMERVILLE     MOCLDY    59  54  82 VRB3      29.96F
BOLIVAR        MOCLDY    59  54  82 NE5       29.98S
PARIS          CLEAR     52  50  93 NE6       30.03S
HUNTINGDON     CLEAR     54  54 100 E6        30.01F FOG
SAVANNAH       CLOUDY    59  54  82 CALM      29.99S
$$

TNZ008-025-027-028-033-062-065-066-290800-
NORTH MIDDLE TENNESSEE

CITY           SKY/WX    TMP DP  RH WIND       PRES   REMARKS
NASHVILLE      CLEAR     54  52  93 NE5       30.05S
PORTLAND       PTCLDY    54  54 100 NE3       30.06S FOG
CLARKSVILLE    FOG       50  48  93 E3        30.04F VSB 1/2
SMYRNA         CLEAR     51  50  96 CALM      30.05F
COOKEVILLE     CLEAR     46  45  93 CALM      30.04S
GALLATIN       CLEAR     55  54  94 NE5       30.07F
CROSSVILLE     CLEAR     50  48  93 NE3       30.05F
$$

TNZ061-075-076-078-094-096-097-290800-
SOUTH MIDDLE TENNESSEE

CITY           SKY/WX    TMP DP  RH WIND       PRES   REMARKS
FAYETTEVILLE   PTCLDY    57  52  82 NE8       30.01F
TULLAHOMA      CLEAR     50  48  93 CALM        N/A
WINCHESTER     CLEAR     46  46 100 CALM      30.03S
MCMINNVILLE    CLEAR     48  48 100 CALM      30.04S
COLUMBIA       CLEAR    N/A N/A N/A CALM      30.01F
SHELBYVILLE    CLEAR     54  52  94 CALM      30.04F
$$

TNZ017-018-042-046-047-290800-
NORTHEAST TENNESSEE

CITY           SKY/WX    TMP DP  RH WIND       PRES   REMARKS
TRI CITIES     CLEAR     51  48  89 CALM      30.05F
ELIZABETHTON   CLEAR     48  48 100 CALM      30.05F
$$

TNZ012-013-036-069-073-074-290800-
CENTRAL EAST TENNESSEE

CITY           SKY/WX    TMP DP  RH WIND       PRES   REMARKS
KNOXVILLE      PTCLDY    54  49  83 NE3       30.02F
OAK RIDGE      CLEAR     52  48  86 CALM      30.05F
DOWNTOWN KNOXV PTCLDY    52  52 100 CALM      30.04S
GATLINBURG     CLEAR     50  48  93 CALM      30.03F
MORRISTOWN     MOCLDY    54  52  94 CALM      30.03F
JACKSBORO      CLEAR     50  50 100 CALM      30.07F
$$

TNZ083-085-099-290800-
SOUTHEAST TENNESSEE

CITY           SKY/WX    TMP DP  RH WIND       PRES   REMARKS
CHATTANOOGA    CLEAR     54  51  90 CALM      30.03F
$$

SKY/WX REPORTED AS FAIR MEANS FEW OR NO CLOUDS BELOW
12 THOUSAND FEET.





USA.gov is the U.S. government's official web portal to all federal, state and local government web resources and services.